WA6MEM Weather Reports


time (UTC)temp
F
wind
direction
speed
knots
gust
knots
rain 1hr
in
rain 24hr
in
rain mn
in
humidity
%
barometer
mb
20260504002539 59 171 2.6 0.0 0.00 0.00 0.00 78 1011.8
20260504002039 58 259 2.6 0.0 0.00 0.00 0.00 80 1011.8
20260504001607 59 282 2.6 0.0 0.00 0.00 0.00 79 1011.8
20260504001039 58 212 2.6 0.0 0.00 0.00 0.00 80 1011.4
20260504000538 58 266 3.5 0.0 0.00 0.00 0.00 81 1011.4
20260504000044 58 279 2.6 0.0 0.00 0.00 0.00 81 1011.4
20260503235538 58 289 2.6 0.0 0.00 0.00 0.00 82 1011.3
20260503235039 58 214 2.6 0.0 0.00 0.00 0.00 83 1011.3
20260503234538 58 286 2.6 0.0 0.00 0.00 0.00 83 1011.3
20260503234039 58 206 2.6 0.0 0.00 0.00 0.00 83 1011.3
20260503233538 58 207 2.6 0.0 0.00 0.00 0.00 83 1011.3
20260503233042 58 234 1.7 0.0 0.00 0.00 0.00 84 1011.3
20260503232538 58 242 1.7 0.0 0.00 0.00 0.00 86 1011.8
20260503232038 58 201 2.6 0.0 0.00 0.00 0.00 86 1011.8
20260503231538 58 178 1.7 0.0 0.00 0.00 0.00 85 1011.8
20260503231038 58 291 1.7 0.0 0.00 0.00 0.00 85 1011.9
20260503230537 58 251 1.7 0.0 0.00 0.00 0.00 86 1011.9
20260503230045 58 169 1.7 0.0 0.00 0.00 0.00 86 1011.9
20260503225536 58 229 2.6 0.0 0.00 0.00 0.00 85 1011.9
20260503225036 58 261 2.6 0.0 0.00 0.00 0.00 84 1011.9
20260503224536 58 264 2.6 0.0 0.00 0.00 0.00 82 1011.9
20260503224036 58 171 2.6 0.0 0.00 0.00 0.00 82 1012.1
20260503223535 58 161 3.5 0.0 0.00 0.00 0.00 81 1012.1
20260503223036 58 160 3.5 0.0 0.00 0.00 0.00 80 1012.1
20260503222535 58 207 3.5 0.0 0.00 0.00 0.00 80 1012.2
20260503222036 58 146 2.6 0.0 0.00 0.00 0.00 80 1012.2
20260503221535 58 163 3.5 0.0 0.00 0.00 0.00 80 1012.2
20260503221035 58 205 3.5 0.0 0.00 0.00 0.00 80 1012.3
20260503220535 59 199 3.5 0.0 0.00 0.00 0.00 79 1012.3
20260503220043 59 164 3.5 0.0 0.00 0.00 0.00 79 1012.3
20260503215535 59 144 3.5 0.0 0.00 0.00 0.00 77 1012.4
20260503215035 59 201 2.6 0.0 0.00 0.00 0.00 76 1012.4
20260503214534 59 142 2.6 0.0 0.00 0.00 0.00 76 1012.4
20260503214040 59 188 2.6 0.0 0.00 0.00 0.00 77 1012.4
20260503213536 59 149 2.6 0.0 0.00 0.00 0.00 77 1012.4
20260503213034 59 209 2.6 0.0 0.00 0.00 0.00 77 1012.4
20260503212536 59 182 2.6 0.0 0.00 0.00 0.00 76 1012.4
20260503212035 59 175 2.6 0.0 0.00 0.00 0.00 76 1012.4
20260503211535 60 163 2.6 0.0 0.00 0.00 0.00 75 1012.4
20260503211033 60 198 2.6 0.0 0.00 0.00 0.00 74 1012.5
20260503210533 59 360 2.6 0.0 0.00 0.00 0.00 74 1012.5
20260503210034 59 189 4.3 0.0 0.00 0.00 0.00 75 1012.5
20260503205535 60 196 4.3 0.0 0.00 0.00 0.00 71 1012.4
20260503205033 60 173 3.5 0.0 0.00 0.00 0.00 74 1012.4
20260503204532 59 196 4.3 0.0 0.00 0.00 0.00 74 1012.4
20260503204032 60 226 5.2 0.0 0.00 0.00 0.00 72 1012.4
20260503203533 60 215 4.3 0.0 0.00 0.00 0.00 71 1012.4
20260503203046 60 175 3.5 0.0 0.00 0.00 0.00 69 1012.4
20260503202537 61 214 2.6 0.0 0.00 0.00 0.00 67 1012.4
20260503202034 61 203 3.5 0.0 0.00 0.00 0.00 67 1012.4
20260503201534 61 197 3.5 0.0 0.00 0.00 0.00 65 1012.4
20260503201032 61 157 3.5 0.0 0.00 0.00 0.00 67 1012.7
20260503200532 61 213 2.6 0.0 0.00 0.00 0.00 65 1012.7
20260503200032 61 173 2.6 0.0 0.00 0.00 0.00 66 1012.7
20260503195530 61 228 3.5 0.0 0.00 0.00 0.00 67 1012.8
20260503195031 61 136 3.5 0.0 0.00 0.00 0.00 65 1012.8
20260503194539 61 162 2.6 0.0 0.00 0.00 0.00 66 1012.8
20260503194029 61 182 3.5 0.0 0.00 0.00 0.00 68 1012.9
20260503193530 60 213 3.5 0.0 0.00 0.00 0.00 67 1012.9
20260503193027 60 164 2.6 0.0 0.00 0.00 0.00 67 1012.9
20260503192525 60 184 2.6 0.0 0.00 0.00 0.00 70 1012.9
20260503192025 60 182 3.5 0.0 0.00 0.00 0.00 71 1012.9
20260503191524 59 360 3.5 0.0 0.00 0.00 0.00 74 1012.9
20260503191024 59 169 4.3 0.0 0.00 0.00 0.00 75 1013.1
20260503190524 59 198 3.5 0.0 0.00 0.00 0.00 73 1013.1
20260503190035 59 172 3.5 0.0 0.00 0.00 0.00 74 1013.1
20260503185524 59 207 3.5 0.0 0.00 0.00 0.00 74 1013.2
20260503185022 59 196 3.5 0.0 0.00 0.00 0.00 73 1013.2
20260503184524 59 182 2.6 0.0 0.00 0.00 0.00 75 1013.2
20260503184022 59 123 2.6 0.0 0.00 0.00 0.00 75 1013.4
20260503183521 59 188 3.5 0.0 0.00 0.00 0.00 76 1013.4
20260503183021 59 180 3.5 0.0 0.00 0.00 0.00 74 1013.4
20260503182520 59 171 2.6 0.0 0.00 0.00 0.00 74 1013.4
20260503182020 58 223 2.6 0.0 0.00 0.00 0.00 75 1013.4
20260503181519 58 253 2.6 0.0 0.00 0.00 0.00 76 1013.4
20260503181018 58 175 2.6 0.0 0.00 0.00 0.00 77 1013.4
20260503180518 58 213 2.6 0.0 0.00 0.00 0.00 78 1013.4
20260503180018 58 186 2.6 0.0 0.00 0.00 0.00 77 1013.4
20260503175517 57 223 2.6 0.0 0.00 0.00 0.00 77 1013.4
20260503175016 57 174 2.6 0.0 0.00 0.00 0.00 76 1013.4
20260503174514 57 200 3.5 0.0 0.00 0.00 0.00 77 1013.4
20260503174013 57 231 3.5 0.0 0.00 0.00 0.00 78 1013.4
20260503173513 56 261 1.7 0.0 0.00 0.00 0.00 80 1013.4
20260503173012 56 265 1.7 0.0 0.00 0.00 0.00 84 1013.4
20260503172514 56 192 2.6 0.0 0.00 0.00 0.00 82 1013.2
20260503172012 56 182 2.6 0.0 0.00 0.00 0.00 84 1013.2
20260503171511 56 184 1.7 0.0 0.00 0.00 0.00 84 1013.2
20260503171011 56 178 2.6 0.0 0.00 0.00 0.00 83 1013.0
20260503170511 56 216 2.6 0.0 0.00 0.00 0.00 83 1013.0
20260503150556 54 146 0.9 0.0 0.00 0.00 0.00 92 1012.5
20260503131049 53 246 1.7 0.0 0.00 0.00 0.00 94 1011.3
20260503130549 53 275 0.9 0.0 0.00 0.00 0.00 94 1011.3
20260503110543 53 298 0.0 0.0 0.00 0.00 0.00 93 1011.2
20260503081541 53 171 2.6 0.0 0.00 0.00 0.00 95 1011.8
20260503081036 53 219 2.6 0.0 0.00 0.00 0.00 95 1011.9
20260503080535 53 171 1.7 0.0 0.00 0.00 0.00 95 1011.9
20260503072532 53 198 1.7 0.0 0.00 0.00 0.00 95 1011.7
20260503072031 53 162 1.7 0.0 0.00 0.00 0.00 95 1011.7
20260503071532 53 188 1.7 0.0 0.00 0.00 0.00 95 1011.7
20260503071031 53 169 1.7 0.0 0.00 0.00 0.00 95 1011.6
20260503070530 53 171 2.6 0.0 0.00 0.00 0.00 95 1011.6
20260503055026 53 173 0.9 0.0 0.00 0.00 0.00 95 1011.4
20260503054543 53 169 0.9 0.0 0.00 0.00 0.00 95 1011.4
20260503054026 53 184 1.7 0.0 0.00 0.00 0.00 95 1011.4
20260503053526 53 162 1.7 0.0 0.00 0.00 0.00 95 1011.4
20260503053036 53 299 0.9 0.0 0.00 0.00 0.00 95 1011.4
20260503052529 53 177 1.7 0.0 0.00 0.00 0.00 95 1011.4
20260503052025 53 219 1.7 0.0 0.00 0.00 0.00 95 1011.4
20260503051525 53 210 1.7 0.0 0.00 0.00 0.00 95 1011.4
20260503051024 53 202 1.7 0.0 0.00 0.00 0.00 95 1011.5
20260503050524 53 192 1.7 0.0 0.00 0.00 0.00 95 1011.5
20260503050025 53 252 1.7 0.0 0.00 0.00 0.00 95 1011.5
20260503045524 53 176 1.7 0.0 0.00 0.00 0.00 95 1011.7
20260503045024 54 232 2.6 0.0 0.00 0.00 0.00 95 1011.7
20260503044524 54 229 1.7 0.0 0.00 0.00 0.00 95 1011.7
20260503044023 54 199 1.7 0.0 0.00 0.00 0.00 94 1011.4
20260503043523 54 157 1.7 0.0 0.00 0.00 0.00 94 1011.4
20260503043025 54 229 1.7 0.0 0.00 0.00 0.00 95 1011.4
20260503042523 54 167 2.6 0.0 0.00 0.00 0.00 94 1011.1
20260503042022 54 178 2.6 0.0 0.00 0.00 0.00 94 1011.1
20260503041523 53 161 2.6 0.0 0.00 0.00 0.00 94 1011.1
20260503041024 54 163 2.6 0.0 0.00 0.00 0.00 94 1010.8
20260503040521 54 204 3.5 0.0 0.00 0.00 0.00 94 1010.8
20260503040032 54 178 2.6 0.0 0.00 0.00 0.00 94 1010.8
20260503035521 54 178 2.6 0.0 0.00 0.00 0.00 94 1010.6
20260503035021 54 200 2.6 0.0 0.00 0.00 0.00 94 1010.6
20260503034521 54 200 1.7 0.0 0.00 0.00 0.00 94 1010.6
20260503034020 54 207 1.7 0.0 0.00 0.00 0.00 94 1010.5
20260503033520 54 196 1.7 0.0 0.00 0.00 0.00 94 1010.5
20260503033027 54 190 1.7 0.0 0.00 0.00 0.00 94 1010.5
20260503032520 54 162 1.7 0.0 0.00 0.00 0.00 94 1010.2
20260503032020 54 168 1.7 0.0 0.00 0.00 0.00 94 1010.2
20260503031520 54 161 2.6 0.0 0.00 0.00 0.00 94 1010.2
20260503031020 54 177 1.7 0.0 0.00 0.00 0.00 94 1009.9
20260503030519 54 196 1.7 0.0 0.00 0.00 0.00 94 1009.9
20260503030025 54 167 1.7 0.0 0.00 0.00 0.00 94 1009.9
20260503025519 54 161 2.6 0.0 0.00 0.00 0.00 93 1009.8
20260503025019 54 149 2.6 0.0 0.00 0.00 0.00 93 1009.8
20260503024519 54 186 2.6 0.0 0.00 0.00 0.00 93 1009.8
20260503024019 54 194 2.6 0.0 0.00 0.00 0.00 93 1009.4
20260503023519 54 190 3.5 0.0 0.00 0.00 0.00 93 1009.4
20260503023019 55 194 2.6 0.0 0.00 0.00 0.00 93 1009.4
20260503022518 55 198 3.5 0.0 0.00 0.00 0.00 93 1009.4
20260503022017 55 167 3.5 0.0 0.00 0.00 0.00 92 1009.4
20260503021518 55 178 2.6 0.0 0.00 0.00 0.00 92 1009.4
20260503021018 55 205 2.6 0.0 0.00 0.00 0.00 92 1009.5
20260503020518 56 172 3.5 0.0 0.00 0.00 0.00 92 1009.5
20260503020018 56 196 2.6 0.0 0.00 0.00 0.00 91 1009.5
20260503015517 56 199 2.6 0.0 0.00 0.00 0.00 91 1009.4
20260503015022 56 176 2.6 0.0 0.00 0.00 0.00 90 1009.4
20260503014517 57 180 2.6 0.0 0.00 0.00 0.00 90 1009.4
20260503014017 57 200 3.5 0.0 0.00 0.00 0.00 90 1009.5
20260503013517 57 162 3.5 0.0 0.00 0.00 0.00 89 1009.5
20260503013021 58 187 3.5 0.0 0.00 0.00 0.00 88 1009.5
20260503012517 58 207 3.5 0.0 0.00 0.00 0.00 88 1009.4
20260503012017 58 200 3.5 0.0 0.00 0.00 0.00 88 1009.4
20260503011521 59 178 3.5 0.0 0.00 0.00 0.00 87 1009.4
20260503011016 59 197 3.5 0.0 0.00 0.00 0.00 87 1009.3
20260503010517 59 195 2.6 0.0 0.00 0.00 0.00 86 1009.3
20260503010020 59 167 2.6 0.0 0.00 0.00 0.00 86 1009.3
20260503005515 59 160 3.5 0.0 0.00 0.00 0.00 85 1009.3
20260503005015 60 171 3.5 0.0 0.00 0.00 0.00 86 1009.3
20260503004517 59 186 3.5 0.0 0.00 0.00 0.00 86 1009.3
20260503004014 60 182 2.6 0.0 0.00 0.00 0.00 85 1009.3
20260503003515 60 163 2.6 0.0 0.00 0.00 0.00 84 1009.3